| time (UTC) | temp F | wind direction | speed MPH | gust MPH | rain 1hr in | rain 24hr in | rain mn in | humidity % | barometer mb |
| 20260506134737 | 51 | 327 | 0.0 | 1.0 | 0.00 | 0.00 | 0.00 | 83 | |
| 20260506134230 | 50 | 327 | 0.0 | 1.0 | 0.00 | 0.00 | 0.00 | 83 | |
| 20260506133731 | 50 | 327 | 0.0 | 0.0 | 0.00 | 0.00 | 0.00 | 86 | |
| 20260506133250 | 50 | 327 | 0.0 | 0.0 | 0.00 | 0.00 | 0.00 | 83 | |
| 20260506132732 | 49 | 327 | 0.0 | 1.0 | 0.00 | 0.00 | 0.00 | 83 | |
| 20260506132308 | 49 | 327 | 0.0 | 3.0 | 0.00 | 0.00 | 0.00 | 82 | |
| 20260506131748 | 49 | 331 | 1.0 | 3.0 | 0.00 | 0.00 | 0.00 | 82 | |
| 20260506131248 | 49 | 336 | 1.0 | 2.0 | 0.00 | 0.00 | 0.00 | 82 | |
| 20260506130747 | 49 | 315 | 0.0 | 0.0 | 0.00 | 0.00 | 0.00 | 82 | |
| 20260506130314 | 49 | 315 | 0.0 | 0.0 | 0.00 | 0.00 | 0.00 | 82 | |
| 20260506125752 | 49 | 315 | 0.0 | 0.0 | 0.00 | 0.00 | 0.00 | 82 | |
| 20260506125236 | 49 | 315 | 0.0 | 0.0 | 0.00 | 0.00 | 0.00 | 82 | |
| 20260506124736 | 49 | 315 | 0.0 | 0.0 | 0.00 | 0.00 | 0.00 | 82 | |
| 20260506124237 | 49 | 315 | 0.0 | 0.0 | 0.00 | 0.00 | 0.00 | 82 | |
| 20260506123736 | 49 | 315 | 0.0 | 0.0 | 0.00 | 0.00 | 0.00 | 81 | |
| 20260506123251 | 49 | 315 | 0.0 | 0.0 | 0.00 | 0.00 | 0.00 | 81 | |
| 20260506122751 | 49 | 315 | 0.0 | 0.0 | 0.00 | 0.00 | 0.00 | 81 | |
| 20260506122233 | 49 | 315 | 0.0 | 0.0 | 0.00 | 0.00 | 0.00 | 81 | |
| 20260506121732 | 50 | 315 | 0.0 | 0.0 | 0.00 | 0.00 | 0.00 | 81 | |
| 20260506121232 | 50 | 315 | 0.0 | 0.0 | 0.00 | 0.00 | 0.00 | 81 | |
| 20260506120732 | 50 | 315 | 0.0 | 0.0 | 0.00 | 0.00 | 0.00 | 81 | |
| 20260506120251 | 50 | 315 | 0.0 | 0.0 | 0.00 | 0.00 | 0.00 | 81 | |
| 20260506115732 | 50 | 315 | 0.0 | 0.0 | 0.00 | 0.00 | 0.00 | 80 | |
| 20260506115245 | 50 | 315 | 0.0 | 0.0 | 0.00 | 0.00 | 0.00 | 80 | |
| 20260506114748 | 50 | 315 | 0.0 | 0.0 | 0.00 | 0.00 | 0.00 | 80 | |
| 20260506114233 | 50 | 315 | 0.0 | 0.0 | 0.00 | 0.00 | 0.00 | 80 | |
| 20260506113734 | 50 | 315 | 0.0 | 0.0 | 0.00 | 0.00 | 0.00 | 80 | |
| 20260506113258 | 50 | 315 | 0.0 | 0.0 | 0.00 | 0.00 | 0.00 | 80 | |
| 20260506112737 | 51 | 315 | 0.0 | 0.0 | 0.00 | 0.00 | 0.00 | 80 | |
| 20260506112259 | 51 | 315 | 0.0 | 0.0 | 0.00 | 0.00 | 0.00 | 79 | |
| 20260506111739 | 51 | 315 | 0.0 | 0.0 | 0.00 | 0.00 | 0.00 | 79 | |
| 20260506111229 | 51 | 315 | 0.0 | 0.0 | 0.00 | 0.00 | 0.00 | 79 | |
| 20260506110732 | 51 | 315 | 0.0 | 0.0 | 0.00 | 0.00 | 0.00 | 79 | |
| 20260506110232 | 51 | 315 | 0.0 | 0.0 | 0.00 | 0.00 | 0.00 | 79 | |
| 20260506105735 | 51 | 315 | 0.0 | 2.0 | 0.00 | 0.00 | 0.00 | 79 | |
| 20260506105258 | 52 | 315 | 0.0 | 3.0 | 0.00 | 0.00 | 0.00 | 79 | |
| 20260506104738 | 52 | 328 | 1.0 | 3.0 | 0.00 | 0.00 | 0.00 | 79 | |
| 20260506104229 | 52 | 334 | 2.0 | 3.0 | 0.00 | 0.00 | 0.00 | 79 | |
| 20260506103752 | 52 | 332 | 0.0 | 3.0 | 0.00 | 0.00 | 0.00 | 79 | |
| 20260506103249 | 52 | 330 | 1.0 | 3.0 | 0.00 | 0.00 | 0.00 | 79 | |
| 20260506102751 | 52 | 324 | 1.0 | 2.0 | 0.00 | 0.00 | 0.00 | 79 | |
| 20260506102235 | 52 | 329 | 0.0 | 4.0 | 0.00 | 0.00 | 0.00 | 79 | |
| 20260506101735 | 52 | 322 | 2.0 | 4.0 | 0.00 | 0.00 | 0.00 | 79 | |
| 20260506101237 | 52 | 325 | 1.0 | 4.0 | 0.00 | 0.00 | 0.00 | 79 | |
| 20260506100757 | 52 | 338 | 2.0 | 5.0 | 0.00 | 0.00 | 0.00 | 79 | |
| 20260506100233 | 52 | 327 | 3.0 | 5.0 | 0.00 | 0.00 | 0.00 | 79 | |
| 20260506095755 | 52 | 341 | 3.0 | 5.0 | 0.00 | 0.00 | 0.00 | 79 | |
| 20260506095231 | 52 | 326 | 2.0 | 3.0 | 0.00 | 0.00 | 0.00 | 79 | |
| 20260506094732 | 52 | 326 | 2.0 | 3.0 | 0.00 | 0.00 | 0.00 | 79 | |
| 20260506094234 | 52 | 332 | 2.0 | 3.0 | 0.00 | 0.00 | 0.00 | 79 | |
| 20260506093734 | 52 | 333 | 1.0 | 3.0 | 0.00 | 0.00 | 0.00 | 79 | |
| 20260506093235 | 52 | 326 | 1.0 | 3.0 | 0.00 | 0.00 | 0.00 | 79 | |
| 20260506092735 | 52 | 329 | 2.0 | 3.0 | 0.00 | 0.00 | 0.00 | 79 | |
| 20260506092243 | 52 | 322 | 1.0 | 4.0 | 0.00 | 0.00 | 0.00 | 79 | |
| 20260506091752 | 52 | 334 | 3.0 | 4.0 | 0.00 | 0.00 | 0.00 | 79 | |
| 20260506091236 | 51 | 325 | 0.0 | 0.0 | 0.00 | 0.00 | 0.00 | 79 | |
| 20260506090737 | 51 | 314 | 0.0 | 0.0 | 0.00 | 0.00 | 0.00 | 78 | |
| 20260506090240 | 51 | 314 | 0.0 | 0.0 | 0.00 | 0.00 | 0.00 | 78 | |
| 20260506085756 | 52 | 314 | 0.0 | 0.0 | 0.00 | 0.00 | 0.00 | 78 | |
| 20260506085234 | 52 | 314 | 0.0 | 0.0 | 0.00 | 0.00 | 0.00 | 78 | |
| 20260506084754 | 52 | 314 | 0.0 | 0.0 | 0.00 | 0.00 | 0.00 | 78 | |
| 20260506084235 | 52 | 314 | 0.0 | 0.0 | 0.00 | 0.00 | 0.00 | 77 | |
| 20260506083753 | 52 | 314 | 0.0 | 0.0 | 0.00 | 0.00 | 0.00 | 77 | |
| 20260506083314 | 52 | 314 | 0.0 | 0.0 | 0.00 | 0.00 | 0.00 | 77 | |
| 20260506082812 | 52 | 314 | 0.0 | 1.0 | 0.00 | 0.00 | 0.00 | 77 | |
| 20260506082232 | 52 | 312 | 0.0 | 2.0 | 0.00 | 0.00 | 0.00 | 77 | |
| 20260506081733 | 52 | 318 | 1.0 | 3.0 | 0.00 | 0.00 | 0.00 | 77 | |
| 20260506081236 | 52 | 330 | 0.0 | 0.0 | 0.00 | 0.00 | 0.00 | 76 | |
| 20260506080736 | 52 | 321 | 0.0 | 0.0 | 0.00 | 0.00 | 0.00 | 76 | |
| 20260506080254 | 53 | 321 | 0.0 | 0.0 | 0.00 | 0.00 | 0.00 | 76 | |
| 20260506073250 | 53 | 332 | 0.0 | 0.0 | 0.00 | 0.00 | 0.00 | 75 | |
| 20260506072808 | 53 | 332 | 0.0 | 2.0 | 0.00 | 0.00 | 0.00 | 75 | |
| 20260506072230 | 53 | 332 | 0.0 | 2.0 | 0.00 | 0.00 | 0.00 | 75 | |
| 20260506071731 | 53 | 334 | 0.0 | 1.0 | 0.00 | 0.00 | 0.00 | 75 | |
| 20260506071234 | 53 | 334 | 0.0 | 2.0 | 0.00 | 0.00 | 0.00 | 74 | |
| 20260506070733 | 53 | 334 | 0.0 | 2.0 | 0.00 | 0.00 | 0.00 | 74 | |
| 20260506070251 | 54 | 333 | 1.0 | 3.0 | 0.00 | 0.00 | 0.00 | 74 | |
| 20260506062307 | 54 | 323 | 0.0 | 2.0 | 0.00 | 0.00 | 0.00 | 72 | |
| 20260506061750 | 54 | 323 | 1.0 | 2.0 | 0.00 | 0.00 | 0.00 | 71 | |
| 20260506061233 | 54 | 323 | 0.0 | 2.0 | 0.00 | 0.00 | 0.00 | 71 | |
| 20260506060734 | 54 | 323 | 1.0 | 2.0 | 0.00 | 0.00 | 0.00 | 71 | |
| 20260506060230 | 55 | 331 | 0.0 | 3.0 | 0.00 | 0.00 | 0.00 | 71 | |
| 20260506051240 | 55 | 316 | 0.0 | 0.0 | 0.00 | 0.00 | 0.00 | 69 | |
| 20260506050739 | 56 | 316 | 0.0 | 0.0 | 0.00 | 0.00 | 0.00 | 69 | |
| 20260506050239 | 56 | 337 | 0.0 | 0.0 | 0.00 | 0.00 | 0.00 | 69 | |
| 20260506044728 | 57 | 332 | 0.0 | 1.0 | 0.00 | 0.00 | 0.00 | 70 | |
| 20260506044231 | 57 | 343 | 0.0 | 1.0 | 0.00 | 0.00 | 0.00 | 70 | |
| 20260506043735 | 57 | 347 | 0.0 | 3.0 | 0.00 | 0.00 | 0.00 | 70 | |
| 20260506043309 | 58 | 337 | 2.0 | 3.0 | 0.00 | 0.00 | 0.00 | 70 | |
| 20260506042731 | 58 | 310 | 1.0 | 2.0 | 0.00 | 0.00 | 0.00 | 70 | |
| 20260506042250 | 58 | 305 | 0.0 | 0.0 | 0.00 | 0.00 | 0.00 | 69 | |
| 20260506041732 | 58 | 263 | 0.0 | 0.0 | 0.00 | 0.00 | 0.00 | 69 | |
| 20260506041235 | 58 | 257 | 0.0 | 0.0 | 0.00 | 0.00 | 0.00 | 68 | |
| 20260506040755 | 58 | 256 | 0.0 | 0.0 | 0.00 | 0.00 | 0.00 | 68 | |
| 20260506040232 | 59 | 257 | 0.0 | 0.0 | 0.00 | 0.00 | 0.00 | 68 | |
| 20260506035733 | 59 | 256 | 0.0 | 0.0 | 0.00 | 0.00 | 0.00 | 67 | |
| 20260506035231 | 59 | 274 | 0.0 | 0.0 | 0.00 | 0.00 | 0.00 | 67 | |
| 20260506034732 | 59 | 274 | 0.0 | 0.0 | 0.00 | 0.00 | 0.00 | 67 | |
| 20260506034256 | 59 | 274 | 0.0 | 0.0 | 0.00 | 0.00 | 0.00 | 66 | |
| 20260506033757 | 59 | 274 | 0.0 | 0.0 | 0.00 | 0.00 | 0.00 | 66 | |
| 20260506033237 | 59 | 274 | 0.0 | 0.0 | 0.00 | 0.00 | 0.00 | 66 | |
| 20260506032755 | 60 | 274 | 0.0 | 0.0 | 0.00 | 0.00 | 0.00 | 65 | |
| 20260506032245 | 60 | 274 | 0.0 | 0.0 | 0.00 | 0.00 | 0.00 | 65 | |
| 20260506031748 | 60 | 280 | 0.0 | 0.0 | 0.00 | 0.00 | 0.00 | 65 | |
| 20260506031228 | 60 | 280 | 0.0 | 0.0 | 0.00 | 0.00 | 0.00 | 64 | |
| 20260506030731 | 60 | 277 | 0.0 | 0.0 | 0.00 | 0.00 | 0.00 | 64 | |
| 20260506030253 | 61 | 303 | 0.0 | 0.0 | 0.00 | 0.00 | 0.00 | 64 | |
| 20260506025735 | 61 | 303 | 0.0 | 5.0 | 0.00 | 0.00 | 0.00 | 64 | |
| 20260506025241 | 61 | 333 | 2.0 | 5.0 | 0.00 | 0.00 | 0.00 | 63 | |
| 20260506024751 | 61 | 326 | 1.0 | 8.0 | 0.00 | 0.00 | 0.00 | 63 | |
| 20260506024242 | 61 | 310 | 4.0 | 8.0 | 0.00 | 0.00 | 0.00 | 63 | |
| 20260506023745 | 61 | 323 | 1.0 | 4.0 | 0.00 | 0.00 | 0.00 | 63 | |
| 20260506023247 | 62 | 322 | 3.0 | 5.0 | 0.00 | 0.00 | 0.00 | 62 | |
| 20260506022732 | 62 | 289 | 3.0 | 5.0 | 0.00 | 0.00 | 0.00 | 63 | |
| 20260506022230 | 62 | 304 | 3.0 | 6.0 | 0.00 | 0.00 | 0.00 | 63 | |
| 20260506021730 | 62 | 289 | 2.0 | 8.0 | 0.00 | 0.00 | 0.00 | 63 | |
| 20260506021231 | 63 | 310 | 4.0 | 9.0 | 0.00 | 0.00 | 0.00 | 62 | |
| 20260506020752 | 63 | 268 | 5.0 | 9.0 | 0.00 | 0.00 | 0.00 | 62 | |
| 20260506020231 | 63 | 249 | 5.0 | 9.0 | 0.00 | 0.00 | 0.00 | 61 | |
| 20260506015754 | 63 | 337 | 2.0 | 8.0 | 0.00 | 0.00 | 0.00 | 60 | |
| 20260506015233 | 63 | 249 | 4.0 | 9.0 | 0.00 | 0.00 | 0.00 | 59 | |
| 20260506014735 | 64 | 273 | 2.0 | 11.0 | 0.00 | 0.00 | 0.00 | 58 | |
| 20260506014251 | 64 | 278 | 5.0 | 11.0 | 0.00 | 0.00 | 0.00 | 57 | |
| 20260506013749 | 65 | 316 | 4.0 | 10.0 | 0.00 | 0.00 | 0.00 | 57 | |
| 20260506013229 | 65 | 272 | 5.0 | 10.0 | 0.00 | 0.00 | 0.00 | 56 | |
| 20260506012732 | 65 | 297 | 4.0 | 10.0 | 0.00 | 0.00 | 0.00 | 56 | |
| 20260506012253 | 65 | 314 | 4.0 | 10.0 | 0.00 | 0.00 | 0.00 | 56 | |
| 20260506011734 | 65 | 328 | 3.0 | 11.0 | 0.00 | 0.00 | 0.00 | 55 | |
| 20260506011242 | 65 | 307 | 4.0 | 11.0 | 0.00 | 0.00 | 0.00 | 55 | |
| 20260506010745 | 65 | 206 | 4.0 | 6.0 | 0.00 | 0.00 | 0.00 | 54 | |
| 20260506010231 | 66 | 54 | 2.0 | 7.0 | 0.00 | 0.00 | 0.00 | 54 | |
| 20260506005733 | 66 | 54 | 3.0 | 7.0 | 0.00 | 0.00 | 0.00 | 53 | |
| 20260506005238 | 65 | 253 | 2.0 | 4.0 | 0.00 | 0.00 | 0.00 | 52 | |
| 20260506004738 | 65 | 248 | 2.0 | 3.0 | 0.00 | 0.00 | 0.00 | 53 | |
| 20260506004311 | 65 | 194 | 0.0 | 4.0 | 0.00 | 0.00 | 0.00 | 53 | |
| 20260506003811 | 64 | 185 | 2.0 | 4.0 | 0.00 | 0.00 | 0.00 | 51 | |
| 20260506003233 | 64 | 105 | 2.0 | 4.0 | 0.00 | 0.00 | 0.00 | 52 | |
| 20260506002734 | 64 | 95 | 1.0 | 4.0 | 0.00 | 0.00 | 0.00 | 52 | |
| 20260506002238 | 65 | 79 | 2.0 | 5.0 | 0.00 | 0.00 | 0.00 | 53 | |
| 20260506001733 | 64 | 93 | 1.0 | 5.0 | 0.00 | 0.00 | 0.00 | 53 | |
| 20260506001310 | 64 | 106 | 3.0 | 5.0 | 0.00 | 0.00 | 0.00 | 52 | |
| 20260506000750 | 64 | 146 | 2.0 | 8.0 | 0.00 | 0.00 | 0.00 | 53 | |
| 20260506000233 | 64 | 112 | 4.0 | 8.0 | 0.00 | 0.00 | 0.00 | 52 | |
| 20260505235734 | 65 | 135 | 4.0 | 9.0 | 0.00 | 0.00 | 0.00 | 52 | |
| 20260505235237 | 64 | 106 | 4.0 | 9.0 | 0.00 | 0.00 | 0.00 | 54 | |
| 20260505234733 | 64 | 122 | 3.0 | 7.0 | 0.00 | 0.00 | 0.00 | 54 | |
| 20260505234245 | 64 | 74 | 2.0 | 7.0 | 0.00 | 0.00 | 0.00 | 54 | |
| 20260505233748 | 63 | 101 | 3.0 | 7.0 | 0.00 | 0.00 | 0.00 | 54 | |
| 20260505233231 | 63 | 142 | 4.0 | 6.0 | 0.00 | 0.00 | 0.00 | 54 | |
| 20260505232754 | 63 | 118 | 2.0 | 5.0 | 0.00 | 0.00 | 0.00 | 54 | |
| 20260505232251 | 63 | 177 | 1.0 | 5.0 | 0.00 | 0.00 | 0.00 | 54 | |
| 20260505231734 | 63 | 89 | 2.0 | 8.0 | 0.00 | 0.00 | 0.00 | 54 | |
| 20260505231257 | 63 | 137 | 3.0 | 9.0 | 0.00 | 0.00 | 0.00 | 53 | |
| 20260505230758 | 63 | 115 | 3.0 | 9.0 | 0.00 | 0.00 | 0.00 | 54 | |
| 20260505230229 | 63 | 111 | 1.0 | 5.0 | 0.00 | 0.00 | 0.00 | 54 | |
| 20260505225750 | 63 | 158 | 3.0 | 7.0 | 0.00 | 0.00 | 0.00 | 54 | |
| 20260505225230 | 63 | 102 | 4.0 | 10.0 | 0.00 | 0.00 | 0.00 | 54 | |
| 20260505224731 | 63 | 104 | 5.0 | 8.0 | 0.00 | 0.00 | 0.00 | 54 | |
| 20260505224231 | 63 | 115 | 3.0 | 7.0 | 0.00 | 0.00 | 0.00 | 54 | |
| 20260505223732 | 63 | 109 | 4.0 | 9.0 | 0.00 | 0.00 | 0.00 | 55 | |
| 20260505223243 | 63 | 87 | 5.0 | 9.0 | 0.00 | 0.00 | 0.00 | 55 | |
| 20260505222746 | 64 | 121 | 3.0 | 5.0 | 0.00 | 0.00 | 0.00 | 56 | |
| 20260505222231 | 63 | 120 | 1.0 | 4.0 | 0.00 | 0.00 | 0.00 | 57 | |
| 20260505221730 | 63 | 98 | 2.0 | 5.0 | 0.00 | 0.00 | 0.00 | 59 | |
| 20260505221234 | 63 | 116 | 1.0 | 4.0 | 0.00 | 0.00 | 0.00 | 58 | |
| 20260505220729 | 63 | 187 | 1.0 | 4.0 | 0.00 | 0.00 | 0.00 | 56 | |
| 20260505220231 | 63 | 159 | 1.0 | 4.0 | 0.00 | 0.00 | 0.00 | 56 | |
| 20260505215753 | 63 | 100 | 2.0 | 4.0 | 0.00 | 0.00 | 0.00 | 56 | |
| 20260505215234 | 63 | 282 | 1.0 | 4.0 | 0.00 | 0.00 | 0.00 | 56 | |
| 20260505214735 | 63 | 269 | 2.0 | 4.0 | 0.00 | 0.00 | 0.00 | 55 | |
| 20260505214246 | 63 | 212 | 1.0 | 6.0 | 0.00 | 0.00 | 0.00 | 55 | |
| 20260505213731 | 63 | 222 | 2.0 | 7.0 | 0.00 | 0.00 | 0.00 | 54 | |
| 20260505213249 | 63 | 168 | 2.0 | 8.0 | 0.00 | 0.00 | 0.00 | 54 | |
| 20260505212749 | 64 | 183 | 3.0 | 8.0 | 0.00 | 0.00 | 0.00 | 54 | |
| 20260505212233 | 64 | 197 | 2.0 | 7.0 | 0.00 | 0.00 | 0.00 | 53 | |
| 20260505211736 | 64 | 251 | 4.0 | 7.0 | 0.00 | 0.00 | 0.00 | 52 | |
| 20260505211312 | 64 | 206 | 1.0 | 7.0 | 0.00 | 0.00 | 0.00 | 52 | |
| 20260505210734 | 64 | 172 | 2.0 | 7.0 | 0.00 | 0.00 | 0.00 | 52 | |
| 20260505210233 | 64 | 188 | 1.0 | 8.0 | 0.00 | 0.00 | 0.00 | 53 | |
| 20260505205732 | 64 | 231 | 4.0 | 8.0 | 0.00 | 0.00 | 0.00 | 53 | |
| 20260505205245 | 65 | 243 | 4.0 | 7.0 | 0.00 | 0.00 | 0.00 | 52 | |
| 20260505204749 | 65 | 137 | 3.0 | 7.0 | 0.00 | 0.00 | 0.00 | 50 | |
| 20260505204230 | 65 | 122 | 0.0 | 6.0 | 0.00 | 0.00 | 0.00 | 50 | |
| 20260505203750 | 66 | 116 | 3.0 | 9.0 | 0.00 | 0.00 | 0.00 | 49 | |
| 20260505203254 | 66 | 120 | 4.0 | 6.0 | 0.00 | 0.00 | 0.00 | 48 | |
| 20260505202728 | 67 | 189 | 1.0 | 4.0 | 0.00 | 0.00 | 0.00 | 48 | |
| 20260505202231 | 67 | 158 | 1.0 | 5.0 | 0.00 | 0.00 | 0.00 | 47 | |
| 20260505201754 | 67 | 94 | 1.0 | 5.0 | 0.00 | 0.00 | 0.00 | 47 | |
| 20260505201232 | 67 | 70 | 2.0 | 4.0 | 0.00 | 0.00 | 0.00 | 47 | |
| 20260505200732 | 67 | 21 | 3.0 | 5.0 | 0.00 | 0.00 | 0.00 | 46 | |
| 20260505200232 | 68 | 324 | 3.0 | 5.0 | 0.00 | 0.00 | 0.00 | 46 | |
| 20260505195733 | 68 | 214 | 2.0 | 5.0 | 0.00 | 0.00 | 0.00 | 46 | |
| 20260505195235 | 68 | 231 | 2.0 | 5.0 | 0.00 | 0.00 | 0.00 | 46 | |
| 20260505194737 | 68 | 208 | 1.0 | 5.0 | 0.00 | 0.00 | 0.00 | 46 | |
| 20260505194308 | 68 | 307 | 3.0 | 6.0 | 0.00 | 0.00 | 0.00 | 45 | |
| 20260505193729 | 68 | 8 | 4.0 | 7.0 | 0.00 | 0.00 | 0.00 | 45 | |
| 20260505193250 | 68 | 240 | 2.0 | 6.0 | 0.00 | 0.00 | 0.00 | 46 | |
| 20260505192729 | 68 | 291 | 2.0 | 6.0 | 0.00 | 0.00 | 0.00 | 46 | |
| 20260505192228 | 68 | 301 | 3.0 | 6.0 | 0.00 | 0.00 | 0.00 | 48 | |
| 20260505191749 | 67 | 264 | 2.0 | 6.0 | 0.00 | 0.00 | 0.00 | 50 | |
| 20260505191252 | 65 | 216 | 2.0 | 6.0 | 0.00 | 0.00 | 0.00 | 53 | |
| 20260505190732 | 64 | 277 | 3.0 | 6.0 | 0.00 | 0.00 | 0.00 | 52 | |
| 20260505190253 | 65 | 162 | 2.0 | 7.0 | 0.00 | 0.00 | 0.00 | 52 | |
| 20260505185753 | 64 | 286 | 4.0 | 11.0 | 0.00 | 0.00 | 0.00 | 52 | |
| 20260505185252 | 65 | 70 | 4.0 | 8.0 | 0.00 | 0.00 | 0.00 | 52 | |
| 20260505184753 | 65 | 53 | 3.0 | 10.0 | 0.00 | 0.00 | 0.00 | 53 | |
| 20260505184235 | 65 | 64 | 6.0 | 10.0 | 0.00 | 0.00 | 0.00 | 52 | |
| 20260505183738 | 65 | 222 | 4.0 | 7.0 | 0.00 | 0.00 | 0.00 | 51 | |
| 20260505183237 | 66 | 125 | 4.0 | 7.0 | 0.00 | 0.00 | 0.00 | 52 | |
| 20260505182736 | 65 | 104 | 2.0 | 8.0 | 0.00 | 0.00 | 0.00 | 53 | |
| 20260505182246 | 66 | 70 | 4.0 | 8.0 | 0.00 | 0.00 | 0.00 | 52 | |
| 20260505181806 | 66 | 215 | 2.0 | 5.0 | 0.00 | 0.00 | 0.00 | 53 | |
| 20260505181315 | 65 | 25 | 2.0 | 8.0 | 0.00 | 0.00 | 0.00 | 54 | |
| 20260505180735 | 65 | 120 | 3.0 | 8.0 | 0.00 | 0.00 | 0.00 | 54 | |
| 20260505180250 | 65 | 110 | 3.0 | 8.0 | 0.00 | 0.00 | 0.00 | 55 | |
| 20260505175750 | 64 | 297 | 2.0 | 7.0 | 0.00 | 0.00 | 0.00 | 56 | |
| 20260505175233 | 63 | 103 | 4.0 | 7.0 | 0.00 | 0.00 | 0.00 | 56 | |
| 20260505174753 | 63 | 104 | 3.0 | 7.0 | 0.00 | 0.00 | 0.00 | 57 | |
| 20260505174253 | 63 | 48 | 5.0 | 8.0 | 0.00 | 0.00 | 0.00 | 57 | |
| 20260505173734 | 62 | 114 | 2.0 | 5.0 | 0.00 | 0.00 | 0.00 | 57 | |
| 20260505173233 | 62 | 8 | 3.0 | 7.0 | 0.00 | 0.00 | 0.00 | 57 | |
| 20260505172754 | 62 | 76 | 5.0 | 7.0 | 0.00 | 0.00 | 0.00 | 58 | |
| 20260505172250 | 62 | 87 | 4.0 | 6.0 | 0.00 | 0.00 | 0.00 | 59 | |
| 20260505171730 | 61 | 50 | 2.0 | 5.0 | 0.00 | 0.00 | 0.00 | 59 | |
| 20260505171236 | 61 | 66 | 3.0 | 7.0 | 0.00 | 0.00 | 0.00 | 59 | |
| 20260505170737 | 61 | 104 | 4.0 | 7.0 | 0.00 | 0.00 | 0.00 | 59 | |
| 20260505170232 | 61 | 110 | 3.0 | 5.0 | 0.00 | 0.00 | 0.00 | 59 | |
| 20260505165732 | 60 | 58 | 3.0 | 5.0 | 0.00 | 0.00 | 0.00 | 61 | |
| 20260505165241 | 59 | 272 | 2.0 | 4.0 | 0.00 | 0.00 | 0.00 | 62 | |
| 20260505164740 | 59 | 131 | 1.0 | 2.0 | 0.00 | 0.00 | 0.00 | 63 | |
| 20260505164241 | 59 | 121 | 1.0 | 3.0 | 0.00 | 0.00 | 0.00 | 65 | |
| 20260505163739 | 58 | 113 | 1.0 | 3.0 | 0.00 | 0.00 | 0.00 | 65 | |
| 20260505163229 | 58 | 84 | 1.0 | 4.0 | 0.00 | 0.00 | 0.00 | 66 | |
| 20260505162747 | 58 | 45 | 3.0 | 4.0 | 0.00 | 0.00 | 0.00 | 66 | |
| 20260505162250 | 58 | 354 | 0.0 | 4.0 | 0.00 | 0.00 | 0.00 | 67 | |
| 20260505161752 | 58 | 196 | 0.0 | 4.0 | 0.00 | 0.00 | 0.00 | 67 | |
| 20260505161231 | 58 | 320 | 2.0 | 4.0 | 0.00 | 0.00 | 0.00 | 67 | |
| 20260505160751 | 58 | 75 | 0.0 | 3.0 | 0.00 | 0.00 | 0.00 | 68 | |
| 20260505160231 | 58 | 36 | 1.0 | 3.0 | 0.00 | 0.00 | 0.00 | 68 | |
| 20260505153236 | 57 | 171 | 0.0 | 3.0 | 0.00 | 0.00 | 0.00 | 70 | |
| 20260505152737 | 57 | 127 | 1.0 | 3.0 | 0.00 | 0.00 | 0.00 | 70 | |
| 20260505152246 | 57 | 161 | 1.0 | 2.0 | 0.00 | 0.00 | 0.00 | 71 | |
| 20260505151729 | 56 | 198 | 0.0 | 2.0 | 0.00 | 0.00 | 0.00 | 71 | |
| 20260505151231 | 56 | 154 | 0.0 | 3.0 | 0.00 | 0.00 | 0.00 | 71 | |
| 20260505150732 | 56 | 234 | 1.0 | 3.0 | 0.00 | 0.00 | 0.00 | 72 | |
| 20260505150235 | 56 | 302 | 0.0 | 1.0 | 0.00 | 0.00 | 0.00 | 73 | |
| 20260505140234 | 51 | 112 | 0.0 | 0.0 | 0.00 | 0.00 | 0.00 | 79 |